Tracking 19570 objects as of 21-Feb-2019
HD Live streaming from Space Station
objects crossing your sky now

COSMOS 2112

Track COSMOS 2112 now!
10-day predictions
COSMOS 2112 is classified as:


NORAD ID: 21014
Int'l Code: 1990-111A
Perigee: 766.9 km
Apogee: 808.4 km
Inclination: 74.0 °
Period: 100.5 minutes
Semi major axis: 7158 km
RCS: 2.2033 m2 (large)
Launch date: December 10, 1990
Source: Commonwealth of Independent States (former USSR) (CIS)
Launch site: PLESETSK MISSILE AND SPACE COMPLEX (PKMTR)
aabbcc
Your satellite tracking list
Your tracking list is empty




NASA's NSSDC Master Catalog

Two Line Element Set (TLE):
1 21014U 90111A   19051.91558818 -.00000000 +00000-0 +93944-5 0  9996
2 21014 074.0480 150.4725 0029013 277.2070 082.5783 14.33355294474194
Source of the keplerian elements: AFSPC